Content
SEND FEEDBACK

Daily
Averages
Monthly
Summary
Norway

FYN, NORWAY


Home > Europe > Norway
Elevation: 26 feet     Latitude: 59 01N     Longitude: 010 31E

WEATHER
 
SELECT A DAY
Number of Records: 193,348;   Date Range: 7/1/96 - 8/30/14
 
SHARE

PRINT THIS DATA

[ ← Previous Day ]
WEATHER ALMANAC - FEBRUARY 13, 2013
[ Next Day → ]
[ °C ]   °F
Weather ElementAverageHighLow
Temperature23.7 °F24.8 °F (11:50 am)21.2 °F (3:20 am)
Dewpoint19.9 °F21.2 °F (1:20 pm)17.6 °F (6:50 am)
Humidity85.6 %93 % (3:20 am)80 % (7:50 am)
Barometer30.30 in30.36 in (5:50 pm)30.21 in (12:50 am)
Wind Speed7.2 mph11.5 mph (1:50 am)
Weather ElementAverage
Visibility6.1 mi
Wind DirectionNNE (37.7 °)

Weather ElementTotal
Precipitation---
Heating Degree Days42 (Base 65)
Averaged from 47 records on February 13, 2013
WEATHER CONDITIONS BREAKOUT
WIND DIRECTION BREAKOUT
WEATHER BY HOUR - FEBRUARY 13, 2013
[ °C ]   °F
Local TimeTemperatureDewpointHumidityBarometerVisibilityWind DirectionWind SpeedGust SpeedPrecipitationEventsConditions
12:50 AM23.0 °F19.4 °F86 %30.21 in6.2 miNorth (10°)10.4 mphSnowSnow Grains
1:20 AM23.0 °F19.4 °F86 %30.21 in6.2 miNorth (10°)10.4 mphSnowSnow Grains
1:50 AM23.0 °F19.4 °F86 %30.21 in6.2 miNorth (10°)11.5 mphSnowSnow Grains
2:20 AM23.0 °F19.4 °F86 %30.21 in6.2 miNorth (10°)11.5 mphSnowSnow Grains
2:50 AM23.0 °F19.4 °F86 %30.21 in6.2 miNorth (10°)10.4 mphSnowSnow Grains
3:20 AM21.2 °F19.4 °F93 %30.21 in6.2 miNorth (10°)10.4 mphOvercast
3:50 AM23.0 °F19.4 °F86 %30.24 in6.2 miNorth (10°)9.2 mphOvercast
4:20 AM23.0 °F19.4 °F86 %30.24 in6.2 miNorth (360°)9.2 mphOvercast
4:50 AM23.0 °F19.4 °F86 %30.24 in6.2 miNorth (10°)10.4 mphSnowSnow Grains
5:20 AM23.0 °F19.4 °F86 %30.24 in6.2 miNorth (10°)10.4 mphSnowSnow Grains
5:50 AM23.0 °F19.4 °F86 %30.24 in6.2 miNNE (20°)9.2 mphSnowLight Snow
6:20 AM23.0 °F19.4 °F86 %30.24 in6.2 miNNE (20°)10.4 mphMostly Cloudy
6:50 AM21.2 °F17.6 °F86 %30.24 in6.2 miNorth (10°)6.9 mphMostly Cloudy
7:20 AM21.2 °F17.6 °F86 %30.27 in6.2 miNorth (10°)8.1 mphMostly Cloudy
7:50 AM23.0 °F17.6 °F80 %30.27 in6.2 miNNE (20°)8.1 mphOvercast
8:20 AM21.2 °F17.6 °F86 %30.27 in6.2 miNorth (10°)6.9 mphOvercast
8:50 AM23.0 °F17.6 °F80 %30.27 in6.2 miNNE (20°)5.8 mphMostly Cloudy
9:20 AM23.0 °F17.6 °F80 %30.30 in6.2 miNorth (10°)5.8 mphMostly Cloudy
9:50 AM23.0 °F17.6 °F80 %30.30 in6.2 miNNE (20°)6.9 mphMostly Cloudy
10:20 AM23.0 °F17.6 °F80 %30.30 in6.2 miNNE (20°)5.8 mphMostly Cloudy
10:50 AM23.0 °F19.4 °F86 %30.30 in6.2 miNNE (20°)5.8 mphMostly Cloudy
11:20 AM23.0 °F19.4 °F86 %30.33 in6.2 miNorth (350°)4.6 mphMostly Cloudy
11:50 AM24.8 °F19.4 °F80 %30.33 in6.2 miNorth (10°)5.8 mphOvercast
12:20 PM24.8 °F19.4 °F80 %30.33 in6.2 miNorth (10°)6.9 mphMostly Cloudy
12:50 PM24.8 °F19.4 °F80 %30.33 in6.2 miNorth (10°)5.8 mphMostly Cloudy
1:20 PM24.8 °F21.2 °F86 %30.33 in6.2 miNNE (20°)6.9 mphMostly Cloudy
1:50 PM24.8 °F21.2 °F86 %30.33 in6.2 miNorth (10°)6.9 mphMostly Cloudy
2:20 PM24.8 °F21.2 °F86 %30.33 in6.2 miNNE (20°)6.9 mphMostly Cloudy
2:50 PM24.8 °F21.2 °F86 %30.33 in6.2 miNNE (20°)8.1 mphMostly Cloudy
3:20 PM24.8 °F21.2 °F86 %30.33 in6.2 miNNE (20°)4.6 mphMostly Cloudy
3:50 PM24.8 °F21.2 °F86 %30.33 in6.2 miNNE (20°)4.6 mphMostly Cloudy
4:20 PM24.8 °F21.2 °F86 %30.33 in6.2 miNNE (20°)4.6 mphOvercast
4:50 PM24.8 °F21.2 °F86 %30.33 in6.2 miNNE (20°)4.6 mphOvercast
5:20 PM24.8 °F21.2 °F86 %30.33 in6.2 miNNE (30°)6.9 mphOvercast
5:50 PM24.8 °F21.2 °F86 %30.36 in6.2 miNorth (10°)6.9 mphMostly Cloudy
6:20 PM24.8 °F21.2 °F86 %30.36 in6.2 miNNE (30°)5.8 mphMostly Cloudy
6:50 PM24.8 °F21.2 °F86 %30.36 in6.2 miNorth (10°)6.9 mphMostly Cloudy
7:20 PM24.8 °F21.2 °F86 %30.36 in6.2 miNNE (20°)8.1 mphSnowLight Snow
7:50 PM24.8 °F21.2 °F86 %30.33 in6.2 miNNE (30°)4.6 mphOvercast
8:20 PM24.8 °F21.2 °F86 %30.33 in6.2 miNE (40°)5.8 mphOvercast
8:50 PM24.8 °F21.2 °F86 %30.33 in6.2 miNorth (10°)4.6 mphOvercast
9:20 PM24.8 °F21.2 °F86 %30.33 in6.2 miNorth (10°)6.9 mphOvercast
9:50 PM24.8 °F21.2 °F86 %30.33 in6.2 miNNE (20°)4.6 mphSnowLight Snow
10:20 PM24.8 °F21.2 °F86 %30.36 in3.7 miNorth (360°)5.8 mphSnowLight Snow
10:50 PM23.0 °F21.2 °F93 %30.33 inNNE (20°)5.8 mphSnowLight Snow
11:20 PM23.0 °F21.2 °F93 %30.33 in3.1 miNorth (10°)5.8 mphSnowLight Snow
11:50 PM23.0 °F21.2 °F93 %30.33 in6.2 miNorth (10°)5.8 mphSnowLight Snow
Hourly data recorded from ENTO, located miles away from Fyn, Norway







STORIES FROM OUR PARTNERS